Location: Albany
(35.0000°S, 118.0000°E)
Time: 00:09:50
(UTC-05:00)

ADEOS Rocket - Visible Passes

Search period start: 24 November 2014 00:00
Search period end: 04 December 2014 00:00
Orbit: 859 x 1308 km, 98.7° (Epoch: 22 November)

Date Brightness Start Highest point End Pass type
(mag) Time Alt. Az. Time Alt. Az. Time Alt. Az.
24 Nov 4.9 06:40:27 10° SE 06:45:22 18° E 06:49:47 11° NE visible
24 Nov 3.6 08:23:39 10° S 08:31:21 81° WSW 08:36:45 23° NNW visible
24 Nov 5.8 10:11:45 10° SSW 10:15:40 15° WSW 10:19:38 10° W visible
25 Nov 3.8 07:35:06 10° SSE 07:42:32 49° E 07:47:25 22° NNE visible
25 Nov 4.9 09:20:59 10° S 09:27:37 33° WSW 09:34:21 10° NW visible
26 Nov 4.7 06:47:45 10° SE 06:53:21 21° E 06:58:05 12° NE visible
26 Nov 3.8 08:31:31 10° S 08:39:13 71° WSW 08:45:03 19° NNW visible
26 Nov 5.9 10:20:19 10° SSW 10:23:21 13° WSW 10:26:25 10° W visible
27 Nov 3.7 07:42:50 10° SSE 07:50:27 56° E 07:55:42 21° N visible
27 Nov 5.2 09:29:02 10° S 09:35:23 29° WSW 09:41:48 10° WNW visible
28 Nov 4.6 06:55:12 10° SE 07:01:20 25° E 07:06:21 13° NE visible
28 Nov 4.0 08:39:26 10° S 08:47:03 62° WSW 08:53:20 16° NNW visible
28 Nov 6.1 10:29:25 10° SW 10:31:01 11° SW 10:32:37 10° WSW visible
29 Nov 3.6 07:50:36 10° SSE 07:58:22 65° E 08:03:58 20° N visible
29 Nov 5.3 09:37:08 10° SSW 09:43:09 25° WSW 09:49:10 10° WNW visible
30 Nov 4.4 07:02:44 10° SE 07:09:18 29° E 07:14:36 14° NE visible
30 Nov 4.2 08:47:22 10° S 08:54:54 54° WSW 09:01:35 13° NW visible
01 Dec 3.5 07:58:25 10° SSE 08:06:16 74° ENE 08:12:13 19° N visible
01 Dec 5.5 09:45:18 10° SSW 09:50:53 22° WSW 09:56:27 10° WNW visible
02 Dec 4.2 07:10:20 10° SSE 07:17:16 34° E 07:22:50 15° NNE visible
02 Dec 4.4 08:55:20 10° S 09:02:43 47° WSW 09:09:49 11° NW visible
03 Dec 3.5 08:06:16 10° SSE 08:14:10 84° ENE 08:20:26 17° NNW visible
03 Dec 5.7 09:53:32 10° SSW 09:58:36 19° WSW 10:03:38 10° W visible
